www.pogodaiklimat.ru
Время
и дата
19:52 28.01
20:52 28.01
21:52 28.01
22:52 28.01
23:52 28.01
00:52 29.01
01:52 29.01
02:52 29.01
03:52 29.01
04:52 29.01
05:52 29.01
06:52 29.01
07:52 29.01
08:52 29.01
09:52 29.01
10:52 29.01
11:52 29.01
12:52 29.01
13:52 29.01
14:52 29.01
15:52 29.01
16:52 29.01
17:52 29.01
18:52 29.01
19:52 29.01
20:52 29.01
21:52 29.01
22:52 29.01
23:52 29.01
00:52 30.01
01:52 30.01
02:52 30.01
03:52 30.01
04:52 30.01
05:52 30.01
06:52 30.01
07:52 30.01
08:52 30.01
09:52 30.01
10:52 30.01
11:52 30.01
12:52 30.01
13:52 30.01
14:52 30.01
15:52 30.01
16:52 30.01
17:52 30.01
18:52 30.01
Ветер
(напр.,м/с)
Видим. Явления Облачность Т
(С)
Тd
(С)
f
(%)
Тe
(С)
Тes
(С)
Комфортность P
(гПа)
Po
(гПа)
Тmin
(С)
Tmax
(С)
R
(мм)
R24
(мм)
S
(см)
штиль 0 16 км ясно +4.4 -12.8 27 +5 +5 1015.8 834.7
ЮВ 3 16 км ясно 0.0 -13.3 36 -4 -4 1016.6 835.0
ЮВ 3 16 км ясно -0.6 -13.3 38 -4 -4 1016.3 835.0
ЮВ 3 16 км ясно -2.2 -13.3 42 -6 -6 1016.5 835.3 -2.2 +10.0
ЮВ 3 16 км ясно -2.2 -12.8 44 -6 -6 1015.8 835.0
ЮВ 2 16 км ясно -1.1 -12.2 43 -4 -4 1014.3 834.7
В 4 16 км ясно -1.7 -11.7 46 -7 -7 1014.3 834.7
ЮВ 2 16 км ясно -2.2 -11.7 48 -5 -5 1014.1 834.7
штиль 0 16 км 2/0 6000 m
[Ac]
-2.2 -11.7 48 -3 -3 1013.7 834.5
С 2 16 км 2/0 6000 m
[Ac]
-2.2 -11.1 50 -5 -5 1014.2 834.5 -3.9
штиль 0 16 км 2/0 6000 m
[Ac]
-3.3 -11.1 55 -4 -4 1015.0 834.5
штиль 0 16 км ясно -2.8 -11.1 53 -3 -3 1015.3 834.7
штиль 0 16 км туман ясно -2.2 -10.6 53 -3 -3 1015.9 835.0
СЗ 2 16 км ясно -2.2 -10.0 55 -6 -5 1017.3 835.3
С 2 16 км ясно +1.7 -10.0 41 -1 +2 1017.0 835.6
штиль 0 16 км ясно +5.6 -10.0 32 +6 +13 1016.1 835.3 -5.0 +5.6
штиль 0 16 км ясно +7.8 -10.6 26 +8 +18 опасность
простуды
1014.3 834.2
ЮЗ 4 16 км 2/0 7500 m
[Ci]
+9.4 -11.7 21 +7 +13 1011.8 832.8
ЮВ 4
{8}
16 км 2/0 7500 m
[Ci]
+10.6 -12.8 18 +9 +14 1010.6 831.9
Ю 6
{11}
16 км 2/0 7500 m
[Ci]
+11.1 -13.9 16 +9 +11 1009.9 831.4
Ю 6 16 км 2/0 7500 m
[Ci]
+12.2 -14.4 14 +10 +12 1009.5 831.1
ЮЗ 5 16 км 2/0 7500 m
[Ci]
+11.7 -13.3 16 +10 +11 1009.8 831.4 +5.6 +12.2
Ю 3 16 км ясно +8.9 -11.7 22 +7 +7 1011.0 831.7
Ю 3 16 км ясно +6.1 -8.9 33 +4 +4 1012.1 832.2
Ю 6 16 км ясно +5.6 -10.6 30 +2 +2 1012.9 832.8
Ю 5 16 км ясно +5.6 -16.1 19 +2 +2 1013.9 833.6
Ю 2 16 км ясно +3.9 -14.4 25 +2 +2 1013.9 833.9
ЮВ 4 16 км ясно +2.2 -14.4 28 -2 -2 1013.8 834.2 +11.7
В 3 16 км ясно +2.2 -14.4 28 -1 -1 1013.1 834.2
ЮВ 3 16 км ясно 0.0 -14.4 33 -4 -4 1012.9 833.9
В 4 16 км ясно -0.6 -15.0 33 -5 -5 1013.2 834.2
ЮВ 4 16 км ясно 0.0 -14.4 33 -4 -4 1012.9 834.2
В 2 16 км ясно -1.7 -13.9 39 -5 -5 1012.9 834.2
штиль 0 16 км ясно -0.6 -13.3 38 -1 -1 1013.2 834.5 -2.2 +2.2
В 2 16 км ясно -1.1 -12.8 41 -4 -4 1014.5 834.7
В 3 16 км ясно -1.7 -12.8 42 -6 -6 1015.8 835.3
В 3 16 км ясно -0.6 -11.1 45 -5 -5 1016.3 835.8
ЮВ 2 16 км ясно +3.3 -10.6 35 +1 +2 1016.3 836.4
Ю 2 16 км ясно +4.4 -10.6 33 +3 +6 1016.5 836.7
ЮЗ 3 16 км ясно +6.1 -10.6 29 +4 +8 1016.2 836.4 -2.8 +6.1
ЮЗ 3 16 км ясно +7.8 -11.7 24 +6 +12 1014.8 835.6
ЮЗ 4 16 км ясно +10.0 -13.3 18 +8 +14 1013.0 834.2
ЮЗ 3 16 км ясно +10.6 -13.9 16 +9 +16 1011.8 833.1
ЮЗ 7
{11}
16 км 2/0 3000 m
[Ac]
+12.2 -14.4 14 +10 +11 1010.6 832.5
ЮЗ 5 16 км 2/0 3000 m
[Ac]
+11.7 -13.9 15 +10 +12 1011.0 832.5
Ю 3 16 км 2/0 2100 m
[Ac]
+11.7 -13.9 15 +11 +12 1010.7 832.5 +6.1 +12.2
штиль 0 16 км 2/0 2100 m
[Ac]
+10.0 -14.4 16 +10 +10 1011.4 832.5
ЮЗ 2 16 км ясно +8.3 -13.9 19 +7 +7 1012.6 833.1
Местоположение метеостанции Albuquerque International Airport: широта 35.0419 долгота -106.6156 высота над уровнем моря 1619 м.
В архиве по умолчанию представлена погода в Альбукерке за последние 1-2 суток. Обновление информации о фактической погоде в базе происходит ежечасно! Архивные данные за месяц целиком и за предыдущие месяцы Вы можете получить, выбрав интересующий диапазон дат из раскрывающегося списка и нажав кнопку "Ввод!".
Внимание! Архив погоды МЕТАР в базе сайта по станциям, не включенным в климатический монитор, хранится не более 60 дней. Нет смысла пытаться выбрать более раннюю дату.
*Определитесь, кто Вы:
Внимание! Время в таблицах - местное (без учета летнего времени). Для получения всемирного времени необходимо вычесть поправку, которая равна -7 ч.
Смотрите также архив погоды в соседних городах и на ближайших метеорологических станциях:
Партнеры нашего сайта:      
Пояснения к столбцам:
  • Ветер - указаны скорость ветра в м/с - средняя за 10 мин, порывы в срок и между сроками (в фигурных скобках) и направление, откуда дует ветер: С - северный,
  • СВ - северо-восточный, В - восточный, ЮВ - юго-восточный, Ю - южный, ЮЗ - юго-западный, З - западный, СЗ - северо-западный.
  • Видимость - горизонтальная дальность видимости в метрах или километрах. При видимости от 1 до 10 км при отсутствии осадков обычно наблюдается дымка, при ухудшении видимости до 1 км и менее - туман. В сухую погоду видимость может ухудшаться дымом, пылью или мглою.
  • Явления - указаны атмосферные явления, наблюдавшиеся в срок или в последний час перед сроком; фигурными скобками обозначены явления, наблюдавшиеся между сроками (за 1-3 часа до срока); квадратными скобками обозначены град или гололедные отложения с указанием их диаметра в мм.
  • Облачность - указаны через наклонную черту общая и нижняя облачность в баллах и высота нижней границы облаков в метрах; квадратными скобками обозначены формы облаков: Ci - перистые, Cs - перисто-слоистые, Cc - перисто-кучевые, Ac - высококучевые, As - высокослоистые, Sc - слоисто-кучевые, Ns - слоисто-дождевые, Cu - кучевые, Cb - кучево-дождевые. Подробнее классификацию облаков см. в Атласе облаков (PDF).
  • T - Температура воздуха - температура, измеренная на высоте 2 м над землей.
  • Td - Температура точки росы - температура, при понижении до которой содержащийся в воздухе водяной пар достигнет насыщения.
  • f - Относительная влажность воздуха - влажноcть воздуха, измеренная на высоте 2 м над землей.
  • Te - Эффективная температура - температура, которую ощущает одетый по сезону человек в тени. Характеристика душности погоды. При расчете учитывается влияние влажности воздуха и скорости ветра на теплоощущения человека.
  • Tes - Эффективная температура на солнце - температура, которую ощущает человек, с поправкой на солнечный нагрев. Характеристика знойности погоды. Зависит от высоты солнца над горизонтом, облачности и скорости ветра. Ночью, в пасмурную погоду, а также при ветре 12 м/с и более поправка равна нулю.
  • P - Атмосферное давление - приведенное к уровню моря атмосферное давление.
  • Po - Атмосферное давление - измеренное на уровне метеостанции атмосферное давление.
  • Tmin - Минимальная температура - минимум температуры воздуха на высоте 2 м над землей.
  • Tmax - Максимальная температура - максимум температуры воздуха на высоте 2 м над землей.
  • R - Количество осадков - Количество выпавших осадков за период времени, мм. При наведении курсора мыши на число - период времени, за который выпало указанное количество осадков.
  • R24 - Количество осадков - Количество выпавших осадков за 24 часа, мм.
  • S - Снежный покров - Высота снежного покрова, см. При наведении курсора мыши на число - состояние снежного покрова и степень покрытия местности в баллах.